owner,sensor,date,latitude,longitude,vertical_datum,wind_speed,wind_to_direction,wind_speed_of_gust,qcFlag 
DISL,ioos:station:DISL:MBLA:1,2017-03-01T00:00:00Z,30.4367,-88.0117,14.2,4.43,125.4,-999.0,'1111122,1111122,1111122' 
DISL,ioos:station:DISL:MBLA:1,2017-03-01T00:30:00Z,30.4367,-88.0117,14.2,3.22,113.4,-999.0,'1111122,1111122,1111122' 
DISL,ioos:station:DISL:MBLA:1,2017-03-01T01:00:00Z,30.4367,-88.0117,14.2,4.05,115.3,-999.0,'1111122,1111122,1111122' 
DISL,ioos:station:DISL:MBLA:1,2017-03-01T01:30:00Z,30.4367,-88.0117,14.2,4.37,122.2,-999.0,'1111122,1111122,1111122' 
DISL,ioos:station:DISL:MBLA:1,2017-03-01T02:00:00Z,30.4367,-88.0117,14.2,4.21,115.3,-999.0,'1111122,1111122,1111122' 
DISL,ioos:station:DISL:MBLA:1,2017-03-01T02:30:00Z,30.4367,-88.0117,14.2,3.73,127.8,-999.0,'1111122,1111122,1111122' 
DISL,ioos:station:DISL:MBLA:1,2017-03-01T03:00:00Z,30.4367,-88.0117,14.2,4.25,121.7,-999.0,'1111122,1111122,1111122' 
DISL,ioos:station:DISL:MBLA:1,2017-03-01T03:30:00Z,30.4367,-88.0117,14.2,3.92,114.6,-999.0,'1111122,1111122,1111122' 
DISL,ioos:station:DISL:MBLA:1,2017-03-01T04:00:00Z,30.4367,-88.0117,14.2,4.11,132.7,-999.0,'1111122,1111122,1111122' 
DISL,ioos:station:DISL:MBLA:1,2017-03-01T04:30:00Z,30.4367,-88.0117,14.2,3.2,138.2,-999.0,'1111122,1111122,1111122' 
DISL,ioos:station:DISL:MBLA:1,2017-03-01T05:00:00Z,30.4367,-88.0117,14.2,3.62,136.5,-999.0,'1111122,1111122,1111122' 
DISL,ioos:station:DISL:MBLA:1,2017-03-01T05:30:00Z,30.4367,-88.0117,14.2,2.41,127.2,-999.0,'1111122,1111122,1111122' 
DISL,ioos:station:DISL:MBLA:1,2017-03-01T06:00:00Z,30.4367,-88.0117,14.2,3.46,127.8,-999.0,'1111122,1111122,1111122' 
DISL,ioos:station:DISL:MBLA:1,2017-03-01T06:30:00Z,30.4367,-88.0117,14.2,5.14,152.9,-999.0,'1111122,1111122,1111122' 
DISL,ioos:station:DISL:MBLA:1,2017-03-01T07:00:00Z,30.4367,-88.0117,14.2,4.59,143.0,-999.0,'1111122,1111122,1111122' 
DISL,ioos:station:DISL:MBLA:1,2017-03-01T07:30:00Z,30.4367,-88.0117,14.2,4.7,137.2,-999.0,'1111122,1111122,1111122' 
DISL,ioos:station:DISL:MBLA:1,2017-03-01T08:00:00Z,30.4367,-88.0117,14.2,5.11,149.0,-999.0,'1111122,1111122,1111122' 
DISL,ioos:station:DISL:MBLA:1,2017-03-01T08:30:00Z,30.4367,-88.0117,14.2,5.44,154.2,-999.0,'1111122,1111122,1111122' 
DISL,ioos:station:DISL:MBLA:1,2017-03-01T09:00:00Z,30.4367,-88.0117,14.2,5.35,155.5,-999.0,'1111122,1111122,1111122' 
DISL,ioos:station:DISL:MBLA:1,2017-03-01T09:30:00Z,30.4367,-88.0117,14.2,5.31,152.2,-999.0,'1111122,1111122,1111122' 
DISL,ioos:station:DISL:MBLA:1,2017-03-01T10:00:00Z,30.4367,-88.0117,14.2,6.72,168.2,-999.0,'1111122,1111122,1111122' 
DISL,ioos:station:DISL:MBLA:1,2017-03-01T10:30:00Z,30.4367,-88.0117,14.2,5.16,166.5,-999.0,'1111122,1111122,1111122' 
DISL,ioos:station:DISL:MBLA:1,2017-03-01T11:00:00Z,30.4367,-88.0117,14.2,4.07,169.6,-999.0,'1111122,1111122,1111122' 
DISL,ioos:station:DISL:MBLA:1,2017-03-01T11:30:00Z,30.4367,-88.0117,14.2,2.28,145.8,-999.0,'1111122,1111122,1111122' 
DISL,ioos:station:DISL:MBLA:1,2017-03-01T12:00:00Z,30.4367,-88.0117,14.2,4.1,154.0,-999.0,'1111122,1111122,1111122' 
DISL,ioos:station:DISL:MBLA:1,2017-03-01T12:30:00Z,30.4367,-88.0117,14.2,5.91,179.8,-999.0,'1111122,1111122,1111122' 
DISL,ioos:station:DISL:MBLA:1,2017-03-01T13:00:00Z,30.4367,-88.0117,14.2,4.66,206.7,-999.0,'1111122,1111122,1111122' 
DISL,ioos:station:DISL:MBLA:1,2017-03-01T13:30:00Z,30.4367,-88.0117,14.2,6.43,198.5,-999.0,'1111122,1111122,1111122' 
DISL,ioos:station:DISL:MBLA:1,2017-03-01T14:00:00Z,30.4367,-88.0117,14.2,5.33,201.5,-999.0,'1111122,1111122,1111122' 
DISL,ioos:station:DISL:MBLA:1,2017-03-01T14:30:00Z,30.4367,-88.0117,14.2,4.67,209.6,-999.0,'1111122,1111122,1111122' 
DISL,ioos:station:DISL:MBLA:1,2017-03-01T15:00:00Z,30.4367,-88.0117,14.2,4.89,188.2,-999.0,'1111122,1111122,1111122' 
DISL,ioos:station:DISL:MBLA:1,2017-03-01T15:30:00Z,30.4367,-88.0117,14.2,4.06,209.0,-999.0,'1111122,1111122,1111122' 
DISL,ioos:station:DISL:MBLA:1,2017-03-01T16:00:00Z,30.4367,-88.0117,14.2,4.93,195.5,-999.0,'1111122,1111122,1111122' 
DISL,ioos:station:DISL:MBLA:1,2017-03-01T16:30:00Z,30.4367,-88.0117,14.2,4.65,190.2,-999.0,'1111122,1111122,1111122' 
DISL,ioos:station:DISL:MBLA:1,2017-03-01T17:00:00Z,30.4367,-88.0117,14.2,2.82,188.7,-999.0,'1111122,1111122,1111122' 
DISL,ioos:station:DISL:MBLA:1,2017-03-01T17:30:00Z,30.4367,-88.0117,14.2,4.39,183.9,-999.0,'1111122,1111122,1111122' 
DISL,ioos:station:DISL:MBLA:1,2017-03-01T18:00:00Z,30.4367,-88.0117,14.2,4.47,198.3,-999.0,'1111122,1111122,1111122' 
DISL,ioos:station:DISL:MBLA:1,2017-03-01T18:30:00Z,30.4367,-88.0117,14.2,5.04,206.9,-999.0,'1111122,1111122,1111122' 
DISL,ioos:station:DISL:MBLA:1,2017-03-01T19:00:00Z,30.4367,-88.0117,14.2,6.61,195.5,-999.0,'1111122,1111122,1111122' 
DISL,ioos:station:DISL:MBLA:1,2017-03-01T19:30:00Z,30.4367,-88.0117,14.2,5.84,190.0,-999.0,'1111122,1111122,1111122' 
DISL,ioos:station:DISL:MBLA:1,2017-03-01T20:00:00Z,30.4367,-88.0117,14.2,7.21,170.3,-999.0,'1111122,1111122,1111122' 
DISL,ioos:station:DISL:MBLA:1,2017-03-01T20:30:00Z,30.4367,-88.0117,14.2,5.85,181.5,-999.0,'1111122,1111122,1111122' 
DISL,ioos:station:DISL:MBLA:1,2017-03-01T21:00:00Z,30.4367,-88.0117,14.2,5.97,179.4,-999.0,'1111122,1111122,1111122' 
DISL,ioos:station:DISL:MBLA:1,2017-03-01T21:30:00Z,30.4367,-88.0117,14.2,5.53,186.1,-999.0,'1111122,1111122,1111122' 
DISL,ioos:station:DISL:MBLA:1,2017-03-01T22:00:00Z,30.4367,-88.0117,14.2,6.23,187.7,-999.0,'1111122,1111122,1111122' 
DISL,ioos:station:DISL:MBLA:1,2017-03-01T22:30:00Z,30.4367,-88.0117,14.2,6.66,182.6,-999.0,'1111122,1111122,1111122' 
DISL,ioos:station:DISL:MBLA:1,2017-03-01T23:00:00Z,30.4367,-88.0117,14.2,7.11,190.5,-999.0,'1111122,1111122,1111122' 
DISL,ioos:station:DISL:MBLA:1,2017-03-01T23:30:00Z,30.4367,-88.0117,14.2,6.52,187.5,-999.0,'1111122,1111122,1111122' 
DISL,ioos:station:DISL:MBLA:1,2017-03-02T00:00:00Z,30.4367,-88.0117,14.2,6.55,190.9,-999.0,'1111122,1111122,1111122' 
DISL,ioos:station:DISL:MBLA:1,2017-03-02T00:30:00Z,30.4367,-88.0117,14.2,6.45,198.5,-999.0,'1111122,1111122,1111122' 
DISL,ioos:station:DISL:MBLA:1,2017-03-02T01:00:00Z,30.4367,-88.0117,14.2,6.97,200.3,-999.0,'1111122,1111122,1111122' 
DISL,ioos:station:DISL:MBLA:1,2017-03-02T01:30:00Z,30.4367,-88.0117,14.2,6.34,212.5,-999.0,'1111122,1111122,1111122' 
DISL,ioos:station:DISL:MBLA:1,2017-03-02T02:00:00Z,30.4367,-88.0117,14.2,6.31,208.7,-999.0,'1111122,1111122,1111122' 
DISL,ioos:station:DISL:MBLA:1,2017-03-02T02:30:00Z,30.4367,-88.0117,14.2,5.35,229.7,-999.0,'1111122,1111122,1111122' 
DISL,ioos:station:DISL:MBLA:1,2017-03-02T03:00:00Z,30.4367,-88.0117,14.2,5.3,222.7,-999.0,'1111122,1111122,1111122' 
DISL,ioos:station:DISL:MBLA:1,2017-03-02T03:30:00Z,30.4367,-88.0117,14.2,5.64,238.8,-999.0,'1111122,1111122,1111122' 
DISL,ioos:station:DISL:MBLA:1,2017-03-02T04:00:00Z,30.4367,-88.0117,14.2,12.25,345.9,-999.0,'1111122,1111122,1111122' 
DISL,ioos:station:DISL:MBLA:1,2017-03-02T04:30:00Z,30.4367,-88.0117,14.2,12.19,351.7,-999.0,'1111122,1111122,1111122' 
DISL,ioos:station:DISL:MBLA:1,2017-03-02T05:00:00Z,30.4367,-88.0117,14.2,9.53,348.3,-999.0,'1111122,1111122,1111122' 
DISL,ioos:station:DISL:MBLA:1,2017-03-02T05:30:00Z,30.4367,-88.0117,14.2,8.23,344.8,-999.0,'1111122,1111122,1111122' 
DISL,ioos:station:DISL:MBLA:1,2017-03-02T06:00:00Z,30.4367,-88.0117,14.2,10.07,346.7,-999.0,'1111122,1111122,1111122' 
DISL,ioos:station:DISL:MBLA:1,2017-03-02T06:30:00Z,30.4367,-88.0117,14.2,10.98,345.5,-999.0,'1111122,1111122,1111122' 
DISL,ioos:station:DISL:MBLA:1,2017-03-02T07:00:00Z,30.4367,-88.0117,14.2,13.52,355.2,-999.0,'1111122,1111122,1111122' 
DISL,ioos:station:DISL:MBLA:1,2017-03-02T07:30:00Z,30.4367,-88.0117,14.2,14.34,352.2,-999.0,'1111122,1111122,1111122' 
DISL,ioos:station:DISL:MBLA:1,2017-03-02T08:00:00Z,30.4367,-88.0117,14.2,14.69,353.4,-999.0,'1111122,1111122,1111122' 
DISL,ioos:station:DISL:MBLA:1,2017-03-02T08:30:00Z,30.4367,-88.0117,14.2,13.44,354.0,-999.0,'1111122,1111122,1111122' 
DISL,ioos:station:DISL:MBLA:1,2017-03-02T09:00:00Z,30.4367,-88.0117,14.2,14.93,354.6,-999.0,'1111122,1111122,1111122' 
DISL,ioos:station:DISL:MBLA:1,2017-03-02T09:30:00Z,30.4367,-88.0117,14.2,16.73,2.909,-999.0,'1111122,1111122,1111122' 
DISL,ioos:station:DISL:MBLA:1,2017-03-02T10:00:00Z,30.4367,-88.0117,14.2,14.94,5.823,-999.0,'1111122,1111122,1111122' 
DISL,ioos:station:DISL:MBLA:1,2017-03-02T10:30:00Z,30.4367,-88.0117,14.2,15.66,357.4,-999.0,'1111122,1111122,1111122' 
DISL,ioos:station:DISL:MBLA:1,2017-03-02T11:00:00Z,30.4367,-88.0117,14.2,15.55,8.4,-999.0,'1111122,1111122,1111122' 
DISL,ioos:station:DISL:MBLA:1,2017-03-02T11:30:00Z,30.4367,-88.0117,14.2,15.99,9.4,-999.0,'1111122,1111122,1111122' 
DISL,ioos:station:DISL:MBLA:1,2017-03-02T12:00:00Z,30.4367,-88.0117,14.2,16.57,9.45,-999.0,'1111122,1111122,1111122' 
DISL,ioos:station:DISL:MBLA:1,2017-03-02T12:30:00Z,30.4367,-88.0117,14.2,15.1,9.58,-999.0,'1111122,1111122,1111122' 
DISL,ioos:station:DISL:MBLA:1,2017-03-02T13:00:00Z,30.4367,-88.0117,14.2,15.88,9.0,-999.0,'1111122,1111122,1111122' 
DISL,ioos:station:DISL:MBLA:1,2017-03-02T13:30:00Z,30.4367,-88.0117,14.2,15.2,10.19,-999.0,'1111122,1111122,1111122' 
DISL,ioos:station:DISL:MBLA:1,2017-03-02T14:00:00Z,30.4367,-88.0117,14.2,15.01,12.47,-999.0,'1111122,1111122,1111122' 
DISL,ioos:station:DISL:MBLA:1,2017-03-02T14:30:00Z,30.4367,-88.0117,14.2,15.45,10.6,-999.0,'1111122,1111122,1111122' 
DISL,ioos:station:DISL:MBLA:1,2017-03-02T15:00:00Z,30.4367,-88.0117,14.2,14.64,12.47,-999.0,'1111122,1111122,1111122' 
DISL,ioos:station:DISL:MBLA:1,2017-03-02T15:30:00Z,30.4367,-88.0117,14.2,14.1,9.21,-999.0,'1111122,1111122,1111122' 
DISL,ioos:station:DISL:MBLA:1,2017-03-02T16:00:00Z,30.4367,-88.0117,14.2,13.62,10.1,-999.0,'1111122,1111122,1111122' 
DISL,ioos:station:DISL:MBLA:1,2017-03-02T16:30:00Z,30.4367,-88.0117,14.2,12.39,5.168,-999.0,'1111122,1111122,1111122' 
DISL,ioos:station:DISL:MBLA:1,2017-03-02T17:00:00Z,30.4367,-88.0117,14.2,12.57,3.346,-999.0,'1111122,1111122,1111122' 
DISL,ioos:station:DISL:MBLA:1,2017-03-02T17:30:00Z,30.4367,-88.0117,14.2,12.18,5.128,-999.0,'1111122,1111122,1111122' 
DISL,ioos:station:DISL:MBLA:1,2017-03-02T18:00:00Z,30.4367,-88.0117,14.2,12.49,0.337,-999.0,'1111122,1111122,1111122' 
DISL,ioos:station:DISL:MBLA:1,2017-03-02T18:30:00Z,30.4367,-88.0117,14.2,12.61,0.187,-999.0,'1111122,1111122,1111122' 
DISL,ioos:station:DISL:MBLA:1,2017-03-02T19:00:00Z,30.4367,-88.0117,14.2,11.3,357.5,-999.0,'1111122,1111122,1111122' 
DISL,ioos:station:DISL:MBLA:1,2017-03-02T19:30:00Z,30.4367,-88.0117,14.2,10.4,357.3,-999.0,'1111122,1111122,1111122' 
DISL,ioos:station:DISL:MBLA:1,2017-03-02T20:00:00Z,30.4367,-88.0117,14.2,12.12,355.4,-999.0,'1111122,1111122,1111122' 
DISL,ioos:station:DISL:MBLA:1,2017-03-02T20:30:00Z,30.4367,-88.0117,14.2,10.7,357.1,-999.0,'1111122,1111122,1111122' 
DISL,ioos:station:DISL:MBLA:1,2017-03-02T21:00:00Z,30.4367,-88.0117,14.2,11.2,355.7,-999.0,'1111122,1111122,1111122' 
DISL,ioos:station:DISL:MBLA:1,2017-03-02T21:30:00Z,30.4367,-88.0117,14.2,11.73,359.7,-999.0,'1111122,1111122,1111122' 
DISL,ioos:station:DISL:MBLA:1,2017-03-02T22:00:00Z,30.4367,-88.0117,14.2,10.12,1.391,-999.0,'1111122,1111122,1111122' 
DISL,ioos:station:DISL:MBLA:1,2017-03-02T22:30:00Z,30.4367,-88.0117,14.2,10.09,359.4,-999.0,'1111122,1111122,1111122' 
DISL,ioos:station:DISL:MBLA:1,2017-03-02T23:00:00Z,30.4367,-88.0117,14.2,11.01,2.689,-999.0,'1111122,1111122,1111122' 
DISL,ioos:station:DISL:MBLA:1,2017-03-02T23:30:00Z,30.4367,-88.0117,14.2,11.98,13.59,-999.0,'1111122,1111122,1111122' 
DISL,ioos:station:DISL:MBLA:1,2017-03-03T00:00:00Z,30.4367,-88.0117,14.2,12.07,16.65,-999.0,'1111122,1111122,1111122' 
DISL,ioos:station:DISL:MBLA:1,2017-03-03T00:30:00Z,30.4367,-88.0117,14.2,9.56,33.05,-999.0,'1111122,1111122,1111122' 
DISL,ioos:station:DISL:MBLA:1,2017-03-03T01:00:00Z,30.4367,-88.0117,14.2,8.51,34.86,-999.0,'1111122,1111122,1111122' 
DISL,ioos:station:DISL:MBLA:1,2017-03-03T01:30:00Z,30.4367,-88.0117,14.2,7.31,37.87,-999.0,'1111122,1111122,1111122' 
DISL,ioos:station:DISL:MBLA:1,2017-03-03T02:00:00Z,30.4367,-88.0117,14.2,9.13,29.48,-999.0,'1111122,1111122,1111122' 
DISL,ioos:station:DISL:MBLA:1,2017-03-03T02:30:00Z,30.4367,-88.0117,14.2,9.7,22.3,-999.0,'1111122,1111122,1111122' 
DISL,ioos:station:DISL:MBLA:1,2017-03-03T03:00:00Z,30.4367,-88.0117,14.2,10.08,23.62,-999.0,'1111122,1111122,1111122' 
DISL,ioos:station:DISL:MBLA:1,2017-03-03T03:30:00Z,30.4367,-88.0117,14.2,11.79,21.9,-999.0,'1111122,1111122,1111122' 
DISL,ioos:station:DISL:MBLA:1,2017-03-03T04:00:00Z,30.4367,-88.0117,14.2,11.65,21.96,-999.0,'1111122,1111122,1111122' 
DISL,ioos:station:DISL:MBLA:1,2017-03-03T04:30:00Z,30.4367,-88.0117,14.2,10.14,20.2,-999.0,'1111122,1111122,1111122' 
DISL,ioos:station:DISL:MBLA:1,2017-03-03T05:00:00Z,30.4367,-88.0117,14.2,9.25,10.25,-999.0,'1111122,1111122,1111122' 
DISL,ioos:station:DISL:MBLA:1,2017-03-03T05:30:00Z,30.4367,-88.0117,14.2,8.76,25.05,-999.0,'1111122,1111122,1111122' 
DISL,ioos:station:DISL:MBLA:1,2017-03-03T06:00:00Z,30.4367,-88.0117,14.2,8.82,15.58,-999.0,'1111122,1111122,1111122' 
DISL,ioos:station:DISL:MBLA:1,2017-03-03T06:30:00Z,30.4367,-88.0117,14.2,8.99,21.57,-999.0,'1111122,1111122,1111122' 
DISL,ioos:station:DISL:MBLA:1,2017-03-03T07:00:00Z,30.4367,-88.0117,14.2,9.11,21.32,-999.0,'1111122,1111122,1111122' 
DISL,ioos:station:DISL:MBLA:1,2017-03-03T07:30:00Z,30.4367,-88.0117,14.2,9.21,18.27,-999.0,'1111122,1111122,1111122' 
DISL,ioos:station:DISL:MBLA:1,2017-03-03T08:00:00Z,30.4367,-88.0117,14.2,9.34,24.55,-999.0,'1111122,1111122,1111122' 
DISL,ioos:station:DISL:MBLA:1,2017-03-03T08:30:00Z,30.4367,-88.0117,14.2,10.12,18.62,-999.0,'1111122,1111122,1111122' 
DISL,ioos:station:DISL:MBLA:1,2017-03-03T09:00:00Z,30.4367,-88.0117,14.2,9.86,21.33,-999.0,'1111122,1111122,1111122' 
DISL,ioos:station:DISL:MBLA:1,2017-03-03T09:30:00Z,30.4367,-88.0117,14.2,9.5,24.97,-999.0,'1111122,1111122,1111122' 
DISL,ioos:station:DISL:MBLA:1,2017-03-03T10:00:00Z,30.4367,-88.0117,14.2,9.07,28.18,-999.0,'1111122,1111122,1111122' 
DISL,ioos:station:DISL:MBLA:1,2017-03-03T10:30:00Z,30.4367,-88.0117,14.2,8.7,29.81,-999.0,'1111122,1111122,1111122' 
DISL,ioos:station:DISL:MBLA:1,2017-03-03T11:00:00Z,30.4367,-88.0117,14.2,8.3,31.8,-999.0,'1111122,1111122,1111122' 
DISL,ioos:station:DISL:MBLA:1,2017-03-03T11:30:00Z,30.4367,-88.0117,14.2,8.6,41.2,-999.0,'1111122,1111122,1111122' 
DISL,ioos:station:DISL:MBLA:1,2017-03-03T12:00:00Z,30.4367,-88.0117,14.2,9.28,30.23,-999.0,'1111122,1111122,1111122' 
DISL,ioos:station:DISL:MBLA:1,2017-03-03T12:30:00Z,30.4367,-88.0117,14.2,8.53,34.74,-999.0,'1111122,1111122,1111122' 
DISL,ioos:station:DISL:MBLA:1,2017-03-03T13:00:00Z,30.4367,-88.0117,14.2,7.92,34.13,-999.0,'1111122,1111122,1111122' 
DISL,ioos:station:DISL:MBLA:1,2017-03-03T13:30:00Z,30.4367,-88.0117,14.2,8.19,41.8,-999.0,'1111122,1111122,1111122' 
DISL,ioos:station:DISL:MBLA:1,2017-03-03T14:00:00Z,30.4367,-88.0117,14.2,7.91,33.4,-999.0,'1111122,1111122,1111122' 
DISL,ioos:station:DISL:MBLA:1,2017-03-03T14:30:00Z,30.4367,-88.0117,14.2,8.3,42.22,-999.0,'1111122,1111122,1111122' 
DISL,ioos:station:DISL:MBLA:1,2017-03-03T15:00:00Z,30.4367,-88.0117,14.2,6.89,37.64,-999.0,'1111122,1111122,1111122' 
DISL,ioos:station:DISL:MBLA:1,2017-03-03T15:30:00Z,30.4367,-88.0117,14.2,5.76,31.27,-999.0,'1111122,1111122,1111122' 
DISL,ioos:station:DISL:MBLA:1,2017-03-03T16:00:00Z,30.4367,-88.0117,14.2,4.85,15.24,-999.0,'1111122,1111122,1111122' 
DISL,ioos:station:DISL:MBLA:1,2017-03-03T16:30:00Z,30.4367,-88.0117,14.2,5.85,345.1,-999.0,'1111122,1111122,1111122' 
DISL,ioos:station:DISL:MBLA:1,2017-03-03T17:00:00Z,30.4367,-88.0117,14.2,5.97,344.6,-999.0,'1111122,1111122,1111122' 
DISL,ioos:station:DISL:MBLA:1,2017-03-03T17:30:00Z,30.4367,-88.0117,14.2,6.53,349.5,-999.0,'1111122,1111122,1111122' 
DISL,ioos:station:DISL:MBLA:1,2017-03-03T18:00:00Z,30.4367,-88.0117,14.2,9.72,4.761,-999.0,'1111122,1111122,1111122' 
DISL,ioos:station:DISL:MBLA:1,2017-03-03T18:30:00Z,30.4367,-88.0117,14.2,8.83,354.1,-999.0,'1111122,1111122,1111122' 
DISL,ioos:station:DISL:MBLA:1,2017-03-03T19:00:00Z,30.4367,-88.0117,14.2,8.62,356.0,-999.0,'1111122,1111122,1111122' 
DISL,ioos:station:DISL:MBLA:1,2017-03-03T19:30:00Z,30.4367,-88.0117,14.2,8.14,353.6,-999.0,'1111122,1111122,1111122' 
DISL,ioos:station:DISL:MBLA:1,2017-03-03T20:00:00Z,30.4367,-88.0117,14.2,8.08,348.1,-999.0,'1111122,1111122,1111122' 
DISL,ioos:station:DISL:MBLA:1,2017-03-03T20:30:00Z,30.4367,-88.0117,14.2,7.37,1.048,-999.0,'1111122,1111122,1111122' 
DISL,ioos:station:DISL:MBLA:1,2017-03-03T21:00:00Z,30.4367,-88.0117,14.2,6.46,355.2,-999.0,'1111122,1111122,1111122' 
DISL,ioos:station:DISL:MBLA:1,2017-03-03T21:30:00Z,30.4367,-88.0117,14.2,6.84,6.462,-999.0,'1111122,1111122,1111122' 
DISL,ioos:station:DISL:MBLA:1,2017-03-03T22:00:00Z,30.4367,-88.0117,14.2,7.98,7.875,-999.0,'1111122,1111122,1111122' 
DISL,ioos:station:DISL:MBLA:1,2017-03-03T22:30:00Z,30.4367,-88.0117,14.2,7.31,22.16,-999.0,'1111122,1111122,1111122' 
DISL,ioos:station:DISL:MBLA:1,2017-03-03T23:00:00Z,30.4367,-88.0117,14.2,8.37,26.61,-999.0,'1111122,1111122,1111122' 
DISL,ioos:station:DISL:MBLA:1,2017-03-03T23:30:00Z,30.4367,-88.0117,14.2,9.66,31.98,-999.0,'1111122,1111122,1111122' 
DISL,ioos:station:DISL:MBLA:1,2017-03-04T00:00:00Z,30.4367,-88.0117,14.2,8.47,38.35,-999.0,'1111122,1111122,1111122' 
DISL,ioos:station:DISL:MBLA:1,2017-03-04T00:30:00Z,30.4367,-88.0117,14.2,8.42,34.48,-999.0,'1111122,1111122,1111122' 
DISL,ioos:station:DISL:MBLA:1,2017-03-04T01:00:00Z,30.4367,-88.0117,14.2,8.46,29.47,-999.0,'1111122,1111122,1111122' 
DISL,ioos:station:DISL:MBLA:1,2017-03-04T01:30:00Z,30.4367,-88.0117,14.2,7.52,35.48,-999.0,'1111122,1111122,1111122' 
DISL,ioos:station:DISL:MBLA:1,2017-03-04T02:00:00Z,30.4367,-88.0117,14.2,7.87,36.42,-999.0,'1111122,1111122,1111122' 
DISL,ioos:station:DISL:MBLA:1,2017-03-04T02:30:00Z,30.4367,-88.0117,14.2,8.74,46.8,-999.0,'1111122,1111122,1111122' 
DISL,ioos:station:DISL:MBLA:1,2017-03-04T03:00:00Z,30.4367,-88.0117,14.2,8.18,43.73,-999.0,'1111122,1111122,1111122' 
DISL,ioos:station:DISL:MBLA:1,2017-03-04T03:30:00Z,30.4367,-88.0117,14.2,7.92,47.23,-999.0,'1111122,1111122,1111122' 
DISL,ioos:station:DISL:MBLA:1,2017-03-04T04:00:00Z,30.4367,-88.0117,14.2,7.19,48.93,-999.0,'1111122,1111122,1111122' 
DISL,ioos:station:DISL:MBLA:1,2017-03-04T04:30:00Z,30.4367,-88.0117,14.2,7.42,50.33,-999.0,'1111122,1111122,1111122' 
DISL,ioos:station:DISL:MBLA:1,2017-03-04T05:00:00Z,30.4367,-88.0117,14.2,7.45,57.14,-999.0,'1111122,1111122,1111122' 
DISL,ioos:station:DISL:MBLA:1,2017-03-04T05:30:00Z,30.4367,-88.0117,14.2,7.78,58.98,-999.0,'1111122,1111122,1111122' 
DISL,ioos:station:DISL:MBLA:1,2017-03-04T06:00:00Z,30.4367,-88.0117,14.2,7.19,55.27,-999.0,'1111122,1111122,1111122' 
DISL,ioos:station:DISL:MBLA:1,2017-03-04T06:30:00Z,30.4367,-88.0117,14.2,8.06,56.37,-999.0,'1111122,1111122,1111122' 
DISL,ioos:station:DISL:MBLA:1,2017-03-04T07:00:00Z,30.4367,-88.0117,14.2,8.62,55.53,-999.0,'1111122,1111122,1111122' 
DISL,ioos:station:DISL:MBLA:1,2017-03-04T07:30:00Z,30.4367,-88.0117,14.2,9.2,63.0,-999.0,'1111122,1111122,1111122' 
DISL,ioos:station:DISL:MBLA:1,2017-03-04T08:00:00Z,30.4367,-88.0117,14.2,9.89,58.18,-999.0,'1111122,1111122,1111122' 
DISL,ioos:station:DISL:MBLA:1,2017-03-04T08:30:00Z,30.4367,-88.0117,14.2,9.56,66.2,-999.0,'1111122,1111122,1111122' 
DISL,ioos:station:DISL:MBLA:1,2017-03-04T09:00:00Z,30.4367,-88.0117,14.2,10.3,67.86,-999.0,'1111122,1111122,1111122' 
DISL,ioos:station:DISL:MBLA:1,2017-03-04T09:30:00Z,30.4367,-88.0117,14.2,11.1,71.6,-999.0,'1111122,1111122,1111122' 
DISL,ioos:station:DISL:MBLA:1,2017-03-04T10:00:00Z,30.4367,-88.0117,14.2,11.86,65.52,-999.0,'1111122,1111122,1111122' 
DISL,ioos:station:DISL:MBLA:1,2017-03-04T10:30:00Z,30.4367,-88.0117,14.2,12.28,66.04,-999.0,'1111122,1111122,1111122' 
DISL,ioos:station:DISL:MBLA:1,2017-03-04T11:00:00Z,30.4367,-88.0117,14.2,12.01,70.32,-999.0,'1111122,1111122,1111122' 
DISL,ioos:station:DISL:MBLA:1,2017-03-04T11:30:00Z,30.4367,-88.0117,14.2,11.59,68.8,-999.0,'1111122,1111122,1111122' 
DISL,ioos:station:DISL:MBLA:1,2017-03-04T12:00:00Z,30.4367,-88.0117,14.2,11.61,67.29,-999.0,'1111122,1111122,1111122' 
DISL,ioos:station:DISL:MBLA:1,2017-03-04T12:30:00Z,30.4367,-88.0117,14.2,11.76,68.9,-999.0,'1111122,1111122,1111122' 
DISL,ioos:station:DISL:MBLA:1,2017-03-04T13:00:00Z,30.4367,-88.0117,14.2,10.62,76.24,-999.0,'1111122,1111122,1111122' 
DISL,ioos:station:DISL:MBLA:1,2017-03-04T13:30:00Z,30.4367,-88.0117,14.2,10.42,77.16,-999.0,'1111122,1111122,1111122' 
DISL,ioos:station:DISL:MBLA:1,2017-03-04T14:00:00Z,30.4367,-88.0117,14.2,9.05,77.8,-999.0,'1111122,1111122,1111122' 
DISL,ioos:station:DISL:MBLA:1,2017-03-04T14:30:00Z,30.4367,-88.0117,14.2,9.24,91.5,-999.0,'1111122,1111122,1111122' 
DISL,ioos:station:DISL:MBLA:1,2017-03-04T15:00:00Z,30.4367,-88.0117,14.2,7.67,87.4,-999.0,'1111122,1111122,1111122' 
DISL,ioos:station:DISL:MBLA:1,2017-03-04T15:30:00Z,30.4367,-88.0117,14.2,7.02,82.5,-999.0,'1111122,1111122,1111122' 
DISL,ioos:station:DISL:MBLA:1,2017-03-04T16:00:00Z,30.4367,-88.0117,14.2,4.85,81.2,-999.0,'1111122,1111122,1111122' 
DISL,ioos:station:DISL:MBLA:1,2017-03-04T16:30:00Z,30.4367,-88.0117,14.2,3.43,62.0,-999.0,'1111122,1111122,1111122' 
DISL,ioos:station:DISL:MBLA:1,2017-03-04T17:00:00Z,30.4367,-88.0117,14.2,3.4,55.6,-999.0,'1111122,1111122,1111122' 
DISL,ioos:station:DISL:MBLA:1,2017-03-04T17:30:00Z,30.4367,-88.0117,14.2,1.88,56.84,-999.0,'1111122,1111122,1111122' 
DISL,ioos:station:DISL:MBLA:1,2017-03-04T18:00:00Z,30.4367,-88.0117,14.2,0.4,275.9,-999.0,'1111122,1111122,1111122' 
DISL,ioos:station:DISL:MBLA:1,2017-03-04T18:30:00Z,30.4367,-88.0117,14.2,3.27,344.6,-999.0,'1111122,1111122,1111122' 
DISL,ioos:station:DISL:MBLA:1,2017-03-04T19:00:00Z,30.4367,-88.0117,14.2,2.2,332.5,-999.0,'1111122,1111122,1111122' 
DISL,ioos:station:DISL:MBLA:1,2017-03-04T19:30:00Z,30.4367,-88.0117,14.2,1.65,273.0,-999.0,'1111122,1111122,1111122' 
DISL,ioos:station:DISL:MBLA:1,2017-03-04T20:00:00Z,30.4367,-88.0117,14.2,2.41,236.3,-999.0,'1111122,1111122,1111122' 
DISL,ioos:station:DISL:MBLA:1,2017-03-04T20:30:00Z,30.4367,-88.0117,14.2,5.55,147.1,-999.0,'1111122,1111122,1111122' 
DISL,ioos:station:DISL:MBLA:1,2017-03-04T21:00:00Z,30.4367,-88.0117,14.2,5.1,148.9,-999.0,'1111122,1111122,1111122' 
DISL,ioos:station:DISL:MBLA:1,2017-03-04T21:30:00Z,30.4367,-88.0117,14.2,4.58,150.6,-999.0,'1111122,1111122,1111122' 
DISL,ioos:station:DISL:MBLA:1,2017-03-04T22:00:00Z,30.4367,-88.0117,14.2,4.29,162.6,-999.0,'1111122,1111122,1111122' 
DISL,ioos:station:DISL:MBLA:1,2017-03-04T22:30:00Z,30.4367,-88.0117,14.2,5.59,151.6,-999.0,'1111122,1111122,1111122' 
DISL,ioos:station:DISL:MBLA:1,2017-03-04T23:00:00Z,30.4367,-88.0117,14.2,4.32,153.7,-999.0,'1111122,1111122,1111122' 
DISL,ioos:station:DISL:MBLA:1,2017-03-04T23:30:00Z,30.4367,-88.0117,14.2,6.67,147.3,-999.0,'1111122,1111122,1111122' 
DISL,ioos:station:DISL:MBLA:1,2017-03-05T00:00:00Z,30.4367,-88.0117,14.2,6.35,138.5,-999.0,'1111122,1111122,1111122' 
DISL,ioos:station:DISL:MBLA:1,2017-03-05T00:30:00Z,30.4367,-88.0117,14.2,6.17,134.3,-999.0,'1111122,1111122,1111122' 
DISL,ioos:station:DISL:MBLA:1,2017-03-05T01:00:00Z,30.4367,-88.0117,14.2,5.26,110.1,-999.0,'1111122,1111122,1111122' 
DISL,ioos:station:DISL:MBLA:1,2017-03-05T01:30:00Z,30.4367,-88.0117,14.2,3.9,103.6,-999.0,'1111122,1111122,1111122' 
DISL,ioos:station:DISL:MBLA:1,2017-03-05T02:00:00Z,30.4367,-88.0117,14.2,1.98,89.4,-999.0,'1111122,1111122,1111122' 
DISL,ioos:station:DISL:MBLA:1,2017-03-05T02:30:00Z,30.4367,-88.0117,14.2,1.13,80.3,-999.0,'1111122,1111122,1111122' 
DISL,ioos:station:DISL:MBLA:1,2017-03-05T03:00:00Z,30.4367,-88.0117,14.2,1.59,72.77,-999.0,'1111122,1111122,1111122' 
DISL,ioos:station:DISL:MBLA:1,2017-03-05T03:30:00Z,30.4367,-88.0117,14.2,1.96,74.43,-999.0,'1111122,1111122,1111122' 
DISL,ioos:station:DISL:MBLA:1,2017-03-05T04:00:00Z,30.4367,-88.0117,14.2,2.41,67.57,-999.0,'1111122,1111122,1111122' 
DISL,ioos:station:DISL:MBLA:1,2017-03-05T04:30:00Z,30.4367,-88.0117,14.2,2.58,65.66,-999.0,'1111122,1111122,1111122' 